This demonstration page uses our WeatherBlox Daily Observations layout. Learn more.

Left ArrowRight Arrow

39.29038, -76.61219

Hourly Observations for May 29, 2017

Temp ( °F °C ) Dew Point ( °F °C ) Humidity (%) Winds ( mph kmh ) Pressure ( in mb ) Visibility ( mi km ) Precip ( " mm )
12:54 am 00:54 undefined 64 17.8 63 17.2 96 96 undefined N/A 29.83 1010 N/A N/A
1:54 am 01:54 undefined 63 17.2 62 16.7 97 97 undefined N/A 29.81 1010 N/A N/A
2:54 am 02:54 undefined 63 17.2 62 16.7 97 97 undefined N/A 29.80 1009 N/A N/A
3:54 am 03:54 undefined 64 17.8 62 16.7 93 93 undefined N/A 29.82 1010 N/A N/A
4:54 am 04:54 undefined 63 17.2 61 16.1 93 93 undefined N/A 29.81 1010 N/A N/A
5:54 am 05:54 undefined 63 17.2 61 16.1 93 93 undefined N/A 29.82 1010 N/A N/A
6:54 am 06:54 undefined 63 17.2 61 16.1 93 93 undefined N/A 29.84 1011 N/A N/A
7:54 am 07:54 undefined 63 17.2 61 16.1 93 93 undefined N/A 29.86 1011 N/A N/A
8:54 am 08:54 undefined 63 17.2 62 16.7 97 97 undefined N/A 29.88 1012 N/A N/A
9:54 am 09:54 undefined 64 17.8 62 16.7 93 93 undefined N/A 29.90 1013 N/A N/A
10:54 am 10:54 undefined 65 18.3 62 16.7 90 90 undefined N/A 29.90 1013 N/A N/A
11:54 am 11:54 undefined 67 19.4 63 17.2 87 87 undefined N/A 29.93 1014 N/A N/A
12:54 pm 12:54 undefined 71 21.7 64 17.8 79 79 undefined N/A 29.95 1014 N/A N/A
1:54 pm 13:54 undefined 73 22.8 65 18.3 76 76 undefined N/A 29.94 1014 N/A N/A
2:54 pm 14:54 undefined 75 23.9 66 18.9 74 74 undefined N/A 29.95 1014 N/A N/A
3:54 pm 15:54 undefined 74 23.3 65 18.3 74 74 undefined N/A 29.93 1014 N/A N/A
4:54 pm 16:54 undefined 74 23.3 65 18.3 74 74 undefined N/A 29.95 1014 N/A N/A
5:54 pm 17:54 undefined 74 23.3 66 18.9 76 76 undefined N/A 29.95 1014 N/A N/A
6:54 pm 18:54 undefined 73 22.8 65 18.3 76 76 undefined N/A 29.96 1014 N/A N/A
7:54 pm 19:54 undefined 71 21.7 65 18.3 81 81 undefined N/A 29.97 1015 N/A N/A
8:54 pm 20:54 undefined 69 20.6 64 17.8 84 84 undefined N/A 29.99 1016 N/A N/A
9:54 pm 21:54 undefined 67 19.4 63 17.2 87 87 undefined N/A 30.01 1016 N/A N/A
10:54 pm 22:54 undefined 67 19.4 62 16.7 84 84 undefined N/A 30.04 1017 N/A N/A
11:54 pm 23:54 undefined 65 18.3 61 16.1 87 87 undefined N/A 30.06 1018 N/A N/A

Powered by AerisWeather